Year,Month,Day,Hour,Minute,Value (Times are PST for temperature in C)
2009,10,30,00,00,6.40
2009,10,30,00,01,6.40
2009,10,30,00,02,6.40
2009,10,30,00,03,6.40
2009,10,30,00,04,6.40
2009,10,30,00,05,6.40
2009,10,30,00,06,6.30
2009,10,30,00,07,6.30
2009,10,30,00,08,6.30
2009,10,30,00,09,6.30
2009,10,30,00,10,6.30
2009,10,30,00,11,6.30
2009,10,30,00,12,6.30
2009,10,30,00,13,6.30
2009,10,30,00,14,6.30
2009,10,30,00,15,6.30
2009,10,30,00,16,6.30
2009,10,30,00,17,6.30
2009,10,30,00,18,6.30
2009,10,30,00,19,6.30
2009,10,30,00,20,6.30
2009,10,30,00,21,6.30
2009,10,30,00,22,6.20
2009,10,30,00,23,6.20
2009,10,30,00,24,6.20
2009,10,30,00,25,6.20
2009,10,30,00,26,6.20
2009,10,30,00,27,6.20
2009,10,30,00,28,6.20
2009,10,30,00,29,6.20
2009,10,30,00,30,6.20
2009,10,30,00,31,6.20
2009,10,30,00,32,6.20
2009,10,30,00,33,6.20
2009,10,30,00,34,6.20
2009,10,30,00,35,6.20
2009,10,30,00,36,6.20
2009,10,30,00,37,6.20
2009,10,30,00,38,6.20
2009,10,30,00,39,6.20
2009,10,30,00,40,6.20
2009,10,30,00,41,6.20
2009,10,30,00,42,6.20
2009,10,30,00,43,6.20
2009,10,30,00,44,6.20
2009,10,30,00,45,6.20
2009,10,30,00,46,6.20
2009,10,30,00,47,6.20
2009,10,30,00,48,6.20
2009,10,30,00,49,6.20
2009,10,30,00,50,6.20
2009,10,30,00,51,6.20
2009,10,30,00,52,6.20
2009,10,30,00,53,6.30
2009,10,30,00,54,6.30
2009,10,30,00,55,6.30
2009,10,30,00,56,6.30
2009,10,30,00,57,6.30
2009,10,30,00,58,6.30
2009,10,30,00,59,6.30
2009,10,30,01,00,6.30
2009,10,30,01,01,6.30
2009,10,30,01,02,6.40
2009,10,30,01,03,6.40
2009,10,30,01,04,6.40
2009,10,30,01,05,6.40
2009,10,30,01,06,6.40
2009,10,30,01,07,6.40
2009,10,30,01,08,6.40
2009,10,30,01,09,6.40
2009,10,30,01,10,6.40
2009,10,30,01,11,6.40
2009,10,30,01,12,6.40
2009,10,30,01,13,6.40
2009,10,30,01,14,6.40
2009,10,30,01,15,6.40
2009,10,30,01,16,6.40
2009,10,30,01,17,6.40
2009,10,30,01,18,6.40
2009,10,30,01,19,6.40
2009,10,30,01,20,6.40
2009,10,30,01,21,6.40
2009,10,30,01,22,6.40
2009,10,30,01,23,6.40
2009,10,30,01,24,6.40
2009,10,30,01,25,6.40
2009,10,30,01,26,6.40
2009,10,30,01,27,6.40
2009,10,30,01,28,6.40
2009,10,30,01,29,6.30
2009,10,30,01,30,6.30
2009,10,30,01,31,6.30
2009,10,30,01,32,6.30
2009,10,30,01,33,6.30
2009,10,30,01,34,6.30
2009,10,30,01,35,6.30
2009,10,30,01,36,6.30
2009,10,30,01,37,6.30
2009,10,30,01,38,6.30
2009,10,30,01,39,6.30
2009,10,30,01,40,6.30
2009,10,30,01,41,6.30
2009,10,30,01,42,6.30
2009,10,30,01,43,6.30
2009,10,30,01,44,6.30
2009,10,30,01,45,6.40
2009,10,30,01,46,6.40
2009,10,30,01,47,6.40
2009,10,30,01,48,6.40
2009,10,30,01,49,6.40
2009,10,30,01,50,6.40
2009,10,30,01,51,6.40
2009,10,30,01,52,6.40
2009,10,30,01,53,6.40
2009,10,30,01,54,6.40
2009,10,30,01,55,6.40
2009,10,30,01,56,6.40
2009,10,30,01,57,6.40
2009,10,30,01,58,6.40
2009,10,30,01,59,6.40
2009,10,30,02,00,6.50
2009,10,30,02,01,6.50
2009,10,30,02,02,6.50
2009,10,30,02,03,6.50
2009,10,30,02,04,6.50
2009,10,30,02,05,6.50
2009,10,30,02,06,6.50
2009,10,30,02,07,6.50
2009,10,30,02,08,6.50
2009,10,30,02,09,6.50
2009,10,30,02,10,6.60
2009,10,30,02,11,6.60
2009,10,30,02,12,6.60
2009,10,30,02,13,6.60
2009,10,30,02,14,6.60
2009,10,30,02,15,6.60
2009,10,30,02,16,6.60
2009,10,30,02,17,6.60
2009,10,30,02,18,6.60
2009,10,30,02,19,6.70
2009,10,30,02,20,6.70
2009,10,30,02,21,6.70
2009,10,30,02,22,6.70
2009,10,30,02,23,6.70
2009,10,30,02,24,6.70
2009,10,30,02,25,6.80
2009,10,30,02,26,6.80
2009,10,30,02,27,6.80
2009,10,30,02,28,6.80
2009,10,30,02,29,6.80
2009,10,30,02,30,6.80
2009,10,30,02,31,6.80
2009,10,30,02,32,6.80
2009,10,30,02,33,6.80
2009,10,30,02,34,6.90
2009,10,30,02,35,6.90
2009,10,30,02,36,6.90
2009,10,30,02,37,6.90
2009,10,30,02,38,6.90
2009,10,30,02,39,6.90
2009,10,30,02,40,6.90
2009,10,30,02,41,6.90
2009,10,30,02,42,6.90
2009,10,30,02,43,6.90
2009,10,30,02,44,6.90
2009,10,30,02,45,6.90
2009,10,30,02,46,6.90
2009,10,30,02,47,6.90
2009,10,30,02,48,6.90
2009,10,30,02,49,6.90
2009,10,30,02,50,7.00
2009,10,30,02,51,6.90
2009,10,30,02,52,7.00
2009,10,30,02,53,7.00
2009,10,30,02,54,7.00
2009,10,30,02,55,7.00
2009,10,30,02,56,7.00
2009,10,30,02,57,7.10
2009,10,30,02,58,7.10
2009,10,30,02,59,7.10
2009,10,30,03,00,7.10
2009,10,30,03,01,7.10
2009,10,30,03,02,7.20
2009,10,30,03,03,7.20
2009,10,30,03,04,7.20
2009,10,30,03,05,7.20
2009,10,30,03,06,7.20
2009,10,30,03,07,7.20
2009,10,30,03,08,7.30
2009,10,30,03,09,7.30
2009,10,30,03,10,7.30
2009,10,30,03,11,7.30
2009,10,30,03,12,7.40
2009,10,30,03,13,7.40
2009,10,30,03,14,7.40
2009,10,30,03,15,7.40
2009,10,30,03,16,7.50
2009,10,30,03,17,7.50
2009,10,30,03,18,7.50
2009,10,30,03,19,7.50
2009,10,30,03,20,7.60
2009,10,30,03,21,7.60
2009,10,30,03,22,7.60
2009,10,30,03,23,7.70
2009,10,30,03,24,7.70
2009,10,30,03,25,7.80
2009,10,30,03,26,7.80
2009,10,30,03,27,7.80
2009,10,30,03,28,7.90
2009,10,30,03,29,7.90
2009,10,30,03,30,8.00
2009,10,30,03,31,8.00
2009,10,30,03,32,8.10
2009,10,30,03,33,8.10
2009,10,30,03,34,8.20
2009,10,30,03,35,8.20
2009,10,30,03,36,8.20
2009,10,30,03,37,8.30
2009,10,30,03,38,8.30
2009,10,30,03,39,8.30
2009,10,30,03,40,8.40
2009,10,30,03,41,8.40
2009,10,30,03,42,8.50
2009,10,30,03,43,8.60
2009,10,30,03,44,8.70
2009,10,30,03,45,8.70
2009,10,30,03,46,8.80
2009,10,30,03,47,8.90
2009,10,30,03,48,8.90
2009,10,30,03,49,9.00
2009,10,30,03,50,9.10
2009,10,30,03,51,9.20
2009,10,30,03,52,9.30
2009,10,30,03,53,9.40
2009,10,30,03,54,9.60
2009,10,30,03,55,9.60
2009,10,30,03,56,9.70
2009,10,30,03,57,9.70
2009,10,30,03,58,9.70
2009,10,30,03,59,9.80
2009,10,30,04,00,9.90
2009,10,30,04,01,10.00
2009,10,30,04,02,10.10
2009,10,30,04,03,10.30
2009,10,30,04,04,10.50
2009,10,30,04,05,10.60
2009,10,30,04,06,10.70
2009,10,30,04,07,10.70
2009,10,30,04,08,10.70
2009,10,30,04,09,10.80
2009,10,30,04,10,10.80
2009,10,30,04,11,10.80
2009,10,30,04,12,10.70
2009,10,30,04,13,10.80
2009,10,30,04,14,10.80
2009,10,30,04,15,10.80
2009,10,30,04,16,10.80
2009,10,30,04,17,10.80
2009,10,30,04,18,10.80
2009,10,30,04,19,10.80
2009,10,30,04,20,10.80
2009,10,30,04,21,10.70
2009,10,30,04,22,10.70
2009,10,30,04,23,10.70
2009,10,30,04,24,10.70
2009,10,30,04,25,10.70
2009,10,30,04,26,10.70
2009,10,30,04,27,10.80
2009,10,30,04,28,10.80
2009,10,30,04,29,10.80
2009,10,30,04,30,10.80
2009,10,30,04,31,10.70
2009,10,30,04,32,10.80
2009,10,30,04,33,10.80
2009,10,30,04,34,10.80
2009,10,30,04,35,10.90
2009,10,30,04,36,11.00
2009,10,30,04,37,11.00
2009,10,30,05,02,12.30
2009,10,30,05,03,12.30
2009,10,30,05,04,12.40
2009,10,30,05,05,12.40
2009,10,30,05,06,12.40
2009,10,30,05,07,12.40
2009,10,30,05,08,12.40
2009,10,30,05,09,12.40
2009,10,30,05,10,12.40
2009,10,30,05,11,12.50
2009,10,30,05,12,12.50
2009,10,30,05,13,12.60
2009,10,30,05,14,12.60
2009,10,30,05,15,12.60
2009,10,30,05,16,12.70
2009,10,30,05,17,12.70
2009,10,30,05,18,12.70
2009,10,30,05,19,12.80
2009,10,30,05,20,12.80
2009,10,30,05,21,12.80
2009,10,30,05,22,12.80
2009,10,30,05,23,12.90
2009,10,30,05,24,12.90
2009,10,30,05,25,13.00
2009,10,30,05,26,13.00
2009,10,30,05,27,13.10
2009,10,30,05,28,13.10
2009,10,30,05,29,13.20
2009,10,30,05,30,13.20
2009,10,30,05,31,13.20
2009,10,30,05,32,13.20
2009,10,30,05,33,13.20
2009,10,30,05,34,13.20
2009,10,30,05,35,13.20
2009,10,30,05,36,13.30
2009,10,30,05,37,13.30
2009,10,30,05,38,13.30
2009,10,30,05,39,13.30
2009,10,30,05,40,13.30
2009,10,30,05,41,13.30
2009,10,30,05,42,13.30
2009,10,30,05,43,13.30
2009,10,30,05,44,13.30
2009,10,30,05,45,13.30
2009,10,30,05,46,13.30
2009,10,30,05,47,13.30
2009,10,30,05,48,13.30
2009,10,30,05,49,13.30
2009,10,30,05,50,13.30
2009,10,30,05,51,13.30
2009,10,30,05,52,13.30
2009,10,30,05,53,13.30
2009,10,30,05,54,13.30
2009,10,30,05,55,13.30
2009,10,30,05,56,13.30
2009,10,30,05,57,13.30
2009,10,30,05,58,13.30
2009,10,30,05,59,13.30
2009,10,30,06,00,13.30
2009,10,30,06,01,13.30
2009,10,30,06,02,13.30
2009,10,30,06,03,13.30
2009,10,30,06,04,13.30
2009,10,30,06,05,13.30
2009,10,30,06,06,13.30
2009,10,30,06,07,13.30
2009,10,30,06,08,13.30
2009,10,30,06,09,13.30
2009,10,30,06,10,13.30
2009,10,30,06,11,13.30
2009,10,30,06,12,13.30
2009,10,30,06,13,13.40
2009,10,30,06,14,13.40
2009,10,30,06,15,13.40
2009,10,30,06,16,13.40
2009,10,30,06,17,13.40
2009,10,30,06,18,13.40
2009,10,30,06,19,13.40
2009,10,30,06,20,13.50
2009,10,30,06,21,13.50
2009,10,30,06,22,13.50
2009,10,30,06,23,13.60
2009,10,30,06,24,13.60
2009,10,30,06,25,13.60
2009,10,30,06,26,13.50
2009,10,30,06,27,13.50
2009,10,30,06,28,13.50
2009,10,30,06,29,13.50
2009,10,30,06,30,13.40
2009,10,30,06,31,13.40
2009,10,30,06,32,13.40
2009,10,30,06,33,13.40
2009,10,30,06,34,13.30
2009,10,30,06,35,13.30
2009,10,30,06,36,13.30
2009,10,30,06,37,13.20
2009,10,30,06,38,13.20
2009,10,30,06,39,13.20
2009,10,30,06,40,13.10
2009,10,30,06,41,13.10
2009,10,30,06,42,13.00
2009,10,30,06,43,13.00
2009,10,30,06,44,13.00
2009,10,30,06,45,13.00
2009,10,30,06,46,12.90
2009,10,30,06,47,12.90
2009,10,30,06,48,12.90
2009,10,30,06,49,12.90
2009,10,30,06,50,12.90
2009,10,30,06,51,12.80
2009,10,30,06,52,12.80
2009,10,30,06,53,12.80
2009,10,30,06,54,12.70
2009,10,30,06,55,12.70
2009,10,30,06,56,12.70
2009,10,30,06,57,12.60
2009,10,30,06,58,12.60
2009,10,30,06,59,12.60
2009,10,30,07,00,12.60
2009,10,30,07,01,12.50
2009,10,30,07,02,12.50
2009,10,30,07,03,12.40
2009,10,30,07,04,12.40
2009,10,30,07,05,12.40
2009,10,30,07,06,12.40
2009,10,30,07,07,12.40
2009,10,30,07,08,12.40
2009,10,30,07,09,12.40
2009,10,30,07,10,12.40
2009,10,30,07,11,12.40
2009,10,30,07,12,12.40
2009,10,30,07,13,12.40
2009,10,30,07,14,12.30
2009,10,30,07,15,12.30
2009,10,30,07,16,12.30
2009,10,30,07,17,12.30
2009,10,30,07,18,12.30
2009,10,30,07,19,12.30
2009,10,30,07,20,12.30
2009,10,30,07,21,12.30
2009,10,30,07,22,12.30
2009,10,30,07,23,12.30
2009,10,30,07,24,12.30
2009,10,30,07,25,12.30
2009,10,30,07,26,12.30
2009,10,30,07,27,12.30
2009,10,30,07,28,12.30
2009,10,30,07,29,12.30
2009,10,30,07,30,12.30
2009,10,30,07,31,12.30
2009,10,30,07,32,12.20
2009,10,30,07,33,12.20
2009,10,30,07,34,12.20
2009,10,30,07,35,12.20
2009,10,30,07,36,12.20
2009,10,30,07,37,12.20
2009,10,30,07,38,12.20
2009,10,30,07,39,12.20
2009,10,30,07,40,12.20
2009,10,30,07,41,12.20
2009,10,30,07,42,12.20
2009,10,30,07,43,12.20
2009,10,30,07,44,12.10
2009,10,30,07,45,12.10
2009,10,30,07,46,12.10
2009,10,30,07,47,12.10
2009,10,30,07,48,12.10
2009,10,30,07,49,12.10
2009,10,30,07,50,12.10
2009,10,30,07,51,12.20
2009,10,30,07,52,12.20
2009,10,30,07,53,12.20
2009,10,30,07,54,12.10
2009,10,30,07,55,12.10
2009,10,30,07,56,12.20
2009,10,30,07,57,12.20
2009,10,30,07,58,12.20
2009,10,30,07,59,12.20
2009,10,30,08,00,12.20
2009,10,30,08,01,12.20
2009,10,30,08,02,12.20
2009,10,30,08,03,12.20
2009,10,30,08,04,12.20
2009,10,30,08,05,12.20
2009,10,30,08,06,12.30
2009,10,30,08,07,12.30
2009,10,30,08,08,12.30
2009,10,30,08,09,12.30
2009,10,30,08,10,12.40
2009,10,30,08,11,12.40
2009,10,30,08,12,12.40
2009,10,30,08,13,12.50
2009,10,30,08,14,12.50
2009,10,30,08,15,12.50
2009,10,30,08,16,12.50
2009,10,30,08,17,12.50
2009,10,30,08,18,12.60
2009,10,30,08,19,12.60
2009,10,30,08,20,12.60
2009,10,30,08,21,12.60
2009,10,30,08,22,12.60
2009,10,30,08,23,12.60
2009,10,30,08,24,12.60
2009,10,30,08,25,12.50
2009,10,30,08,26,12.50
2009,10,30,08,27,12.50
2009,10,30,08,28,12.50
2009,10,30,08,29,12.50
2009,10,30,08,30,12.40
2009,10,30,08,31,12.40
2009,10,30,08,32,12.40
2009,10,30,08,33,12.40
2009,10,30,08,34,12.30
2009,10,30,08,35,12.30
2009,10,30,08,36,12.30
2009,10,30,08,37,12.30
2009,10,30,08,38,12.30
2009,10,30,08,39,12.30
2009,10,30,08,40,12.30
2009,10,30,08,41,12.30
2009,10,30,08,42,12.30
2009,10,30,08,43,12.20
2009,10,30,08,44,12.20
2009,10,30,08,45,12.20
2009,10,30,08,46,12.20
2009,10,30,08,47,12.20
2009,10,30,08,48,12.30
2009,10,30,08,49,12.30
2009,10,30,08,50,12.40
2009,10,30,08,51,12.40
2009,10,30,08,52,12.50
2009,10,30,08,53,12.50
2009,10,30,08,54,12.50
2009,10,30,08,55,12.60
2009,10,30,08,56,12.60
2009,10,30,08,57,12.60
2009,10,30,08,58,12.70
2009,10,30,08,59,12.80
2009,10,30,09,00,12.80
2009,10,30,09,01,12.90
2009,10,30,09,02,12.90
2009,10,30,09,03,12.90
2009,10,30,09,04,13.00
2009,10,30,09,05,13.00
2009,10,30,09,06,13.00
2009,10,30,09,07,13.00
2009,10,30,09,08,13.10
2009,10,30,09,09,13.10
2009,10,30,09,10,13.10
2009,10,30,09,11,13.00
2009,10,30,09,12,13.00
2009,10,30,09,13,13.00
2009,10,30,09,14,13.10
2009,10,30,09,15,13.10
2009,10,30,09,16,13.10
2009,10,30,09,17,13.10
2009,10,30,09,18,13.10
2009,10,30,09,19,13.10
2009,10,30,09,20,13.10
2009,10,30,09,21,13.10
2009,10,30,09,22,13.20
2009,10,30,09,23,13.20
2009,10,30,09,24,13.20
2009,10,30,09,25,13.30
2009,10,30,09,26,13.30
2009,10,30,09,27,13.30
2009,10,30,09,28,13.30
2009,10,30,09,29,13.30
2009,10,30,09,30,13.30
2009,10,30,09,31,13.30
2009,10,30,09,32,13.30
2009,10,30,09,33,13.30
2009,10,30,09,34,13.30
2009,10,30,09,35,13.20
2009,10,30,09,36,13.20
2009,10,30,09,37,13.20
2009,10,30,09,38,13.20
2009,10,30,09,39,13.10
2009,10,30,09,40,13.10
2009,10,30,09,41,13.10
2009,10,30,09,42,13.10
2009,10,30,09,43,13.10
2009,10,30,09,44,13.20
2009,10,30,09,45,13.20
2009,10,30,09,46,13.20
2009,10,30,09,47,13.30
2009,10,30,09,48,13.30
2009,10,30,09,49,13.30
2009,10,30,09,50,13.30
2009,10,30,09,51,13.20
2009,10,30,09,52,13.20
2009,10,30,09,53,13.20
2009,10,30,09,54,13.20
2009,10,30,09,55,13.20
2009,10,30,09,56,13.20
2009,10,30,09,57,13.20
2009,10,30,09,58,13.20
2009,10,30,09,59,13.20
2009,10,30,10,00,13.20
2009,10,30,10,01,13.10
2009,10,30,10,02,13.10
2009,10,30,10,03,13.10
2009,10,30,10,04,13.10
2009,10,30,10,05,13.10
2009,10,30,10,06,13.10
2009,10,30,10,07,13.00
2009,10,30,10,08,13.00
2009,10,30,10,09,13.00
2009,10,30,10,10,13.00
2009,10,30,10,11,12.90
2009,10,30,10,12,12.90
2009,10,30,10,13,12.90
2009,10,30,10,14,12.90
2009,10,30,10,15,12.90
2009,10,30,10,16,12.90
2009,10,30,10,17,12.90
2009,10,30,10,18,12.90
2009,10,30,10,19,12.90
2009,10,30,10,20,12.90
2009,10,30,10,21,12.90
2009,10,30,10,22,12.90
2009,10,30,10,23,12.90
2009,10,30,10,24,12.90
2009,10,30,10,25,12.90
2009,10,30,10,26,12.90
2009,10,30,10,27,12.90
2009,10,30,10,28,12.90
2009,10,30,10,29,12.90
2009,10,30,10,30,12.90
2009,10,30,10,31,12.90
2009,10,30,10,32,12.90
2009,10,30,10,33,12.90
2009,10,30,10,34,12.90
2009,10,30,10,35,12.90
2009,10,30,10,36,12.90
2009,10,30,10,37,12.90
2009,10,30,10,38,12.90
2009,10,30,10,39,12.90
2009,10,30,10,40,12.90
2009,10,30,10,41,12.90
2009,10,30,10,42,12.90
2009,10,30,10,43,12.90
2009,10,30,10,44,12.90
2009,10,30,10,45,12.90
2009,10,30,10,46,12.90
2009,10,30,10,47,12.90
2009,10,30,10,48,12.90
2009,10,30,10,49,12.90
2009,10,30,10,50,12.90
2009,10,30,10,51,12.90
2009,10,30,10,52,12.80
2009,10,30,10,53,12.80
2009,10,30,10,54,12.80
2009,10,30,10,55,12.80
2009,10,30,10,56,12.80
2009,10,30,10,57,12.80
2009,10,30,10,58,12.80
2009,10,30,10,59,12.80
2009,10,30,11,00,12.80
2009,10,30,11,01,12.80
2009,10,30,11,02,12.80
2009,10,30,11,03,12.80
2009,10,30,11,04,12.70
2009,10,30,11,05,12.70
2009,10,30,11,06,12.70
2009,10,30,11,07,12.70
2009,10,30,11,08,12.70
2009,10,30,11,09,12.70
2009,10,30,11,10,12.70
2009,10,30,11,11,12.70
2009,10,30,11,12,12.70
2009,10,30,11,13,12.70
2009,10,30,11,14,12.70
2009,10,30,11,15,12.70
2009,10,30,11,16,12.60
2009,10,30,11,17,12.60
2009,10,30,11,18,12.60
2009,10,30,11,19,12.60
2009,10,30,11,20,12.60
2009,10,30,11,21,12.60
2009,10,30,11,22,12.60
2009,10,30,11,23,12.60
2009,10,30,11,24,12.60
2009,10,30,11,25,12.60
2009,10,30,11,26,12.60
2009,10,30,11,27,12.60
2009,10,30,11,28,12.60
2009,10,30,11,29,12.60
2009,10,30,11,30,12.60
2009,10,30,11,31,12.60
2009,10,30,11,32,12.60
2009,10,30,11,33,12.60
2009,10,30,11,34,12.60
2009,10,30,11,35,12.60
2009,10,30,11,36,12.70
2009,10,30,11,37,12.70
2009,10,30,11,38,12.70
2009,10,30,11,39,12.70
2009,10,30,11,40,12.70
2009,10,30,11,41,12.70
2009,10,30,11,42,12.70
2009,10,30,11,43,12.70
2009,10,30,11,44,12.70
2009,10,30,11,45,12.70
2009,10,30,11,46,12.70
2009,10,30,11,47,12.70
2009,10,30,11,48,12.70
2009,10,30,11,49,12.70
2009,10,30,11,50,12.70
2009,10,30,11,51,12.70
2009,10,30,11,52,12.80
2009,10,30,11,53,12.80
2009,10,30,11,54,12.80
2009,10,30,11,55,12.80
2009,10,30,11,56,12.80
2009,10,30,11,57,12.90
2009,10,30,11,58,12.90
2009,10,30,11,59,12.90
2009,10,30,12,00,12.90
2009,10,30,12,01,13.00
2009,10,30,12,02,13.00
2009,10,30,12,03,13.00
2009,10,30,12,04,13.00
2009,10,30,12,05,13.10
2009,10,30,12,06,13.10
2009,10,30,12,07,13.10
2009,10,30,12,08,13.10
2009,10,30,12,09,13.20
2009,10,30,12,10,13.20
2009,10,30,12,11,13.20
2009,10,30,12,12,13.20
2009,10,30,12,13,13.30
2009,10,30,12,14,13.30
2009,10,30,12,15,13.30
2009,10,30,12,16,13.30
2009,10,30,12,17,13.30
2009,10,30,12,18,13.40
2009,10,30,12,19,13.30
2009,10,30,12,20,13.40
2009,10,30,12,21,13.40
2009,10,30,12,22,13.40
2009,10,30,12,23,13.40
2009,10,30,12,24,13.40
2009,10,30,12,25,13.40
2009,10,30,12,26,13.40
2009,10,30,12,27,13.40
2009,10,30,12,28,13.40
2009,10,30,12,29,13.40
2009,10,30,12,30,13.40
2009,10,30,12,31,13.40
2009,10,30,12,32,13.40
2009,10,30,12,33,13.40
2009,10,30,12,34,13.40
2009,10,30,12,35,13.40
2009,10,30,12,36,13.40
2009,10,30,12,37,13.40
2009,10,30,12,38,13.40
2009,10,30,12,39,13.40
2009,10,30,12,40,13.40
2009,10,30,12,41,13.40
2009,10,30,12,42,13.40
2009,10,30,12,43,13.40
2009,10,30,12,44,13.30
2009,10,30,12,45,13.30
2009,10,30,12,46,13.30
2009,10,30,12,47,13.30
2009,10,30,12,48,13.30
2009,10,30,12,49,13.30
2009,10,30,12,50,13.30
2009,10,30,12,51,13.40
2009,10,30,12,52,13.40
2009,10,30,12,53,13.40
2009,10,30,12,54,13.40
2009,10,30,12,55,13.40
2009,10,30,12,56,13.50
2009,10,30,12,57,13.50
2009,10,30,12,58,13.50
2009,10,30,12,59,13.60
2009,10,30,13,00,13.60
2009,10,30,13,01,13.60
2009,10,30,13,02,13.60
2009,10,30,13,03,13.60
2009,10,30,13,04,13.60
2009,10,30,13,05,13.60
2009,10,30,13,06,13.70
2009,10,30,13,07,13.70
2009,10,30,13,08,13.70
2009,10,30,13,09,13.70
2009,10,30,13,10,13.70
2009,10,30,13,11,13.70
2009,10,30,13,12,13.70
2009,10,30,13,13,13.70
2009,10,30,13,14,13.70
2009,10,30,13,15,13.70
2009,10,30,13,16,13.70
2009,10,30,13,17,13.70
2009,10,30,13,18,13.70
2009,10,30,13,19,13.70
2009,10,30,13,20,13.70
2009,10,30,13,21,13.60
2009,10,30,13,22,13.60
2009,10,30,13,23,13.60
2009,10,30,13,24,13.60
2009,10,30,13,25,13.60
2009,10,30,13,26,13.60
2009,10,30,13,27,13.50
2009,10,30,13,28,13.50
2009,10,30,13,29,13.50
2009,10,30,13,30,13.50
2009,10,30,13,31,13.40
2009,10,30,13,32,13.40
2009,10,30,13,33,13.40
2009,10,30,13,34,13.40
2009,10,30,13,35,13.40
2009,10,30,13,36,13.30
2009,10,30,13,37,13.30
2009,10,30,13,38,13.30
2009,10,30,13,39,13.30
2009,10,30,13,40,13.30
2009,10,30,13,41,13.30
2009,10,30,13,42,13.30
2009,10,30,13,43,13.30
2009,10,30,13,44,13.30
2009,10,30,13,45,13.30
2009,10,30,13,46,13.30
2009,10,30,13,47,13.40
2009,10,30,13,48,13.50
2009,10,30,13,49,13.50
2009,10,30,13,50,13.60
2009,10,30,13,51,13.70
2009,10,30,13,52,13.70
2009,10,30,13,53,13.80
2009,10,30,13,54,13.90
2009,10,30,13,55,13.90
2009,10,30,13,56,14.00
2009,10,30,13,57,14.00
2009,10,30,13,58,14.10
2009,10,30,13,59,14.10
2009,10,30,14,00,14.10
2009,10,30,14,01,14.20
2009,10,30,14,02,14.20
2009,10,30,14,03,14.20
2009,10,30,14,04,14.20
2009,10,30,14,05,14.30
2009,10,30,14,06,14.30
2009,10,30,14,07,14.30
2009,10,30,14,08,14.40
2009,10,30,14,09,14.40
2009,10,30,14,10,14.50
2009,10,30,14,11,14.50
2009,10,30,14,12,14.60
2009,10,30,14,13,14.60
2009,10,30,14,14,14.70
2009,10,30,14,15,14.80
2009,10,30,14,16,14.80
2009,10,30,14,17,14.80
2009,10,30,14,18,14.90
2009,10,30,14,19,15.00
2009,10,30,14,20,15.00
2009,10,30,14,21,15.00
2009,10,30,14,22,15.00
2009,10,30,14,23,15.00
2009,10,30,14,24,15.00
2009,10,30,14,25,15.00
2009,10,30,14,26,15.00
2009,10,30,14,27,15.00
2009,10,30,14,28,15.00
2009,10,30,14,29,15.00
2009,10,30,14,30,15.00
2009,10,30,14,31,15.00
2009,10,30,14,32,14.90
2009,10,30,14,33,14.90
2009,10,30,14,34,14.90
2009,10,30,14,35,14.90
2009,10,30,14,36,14.90
2009,10,30,14,37,14.90
2009,10,30,14,38,14.90
2009,10,30,14,39,14.90
2009,10,30,14,40,14.90
2009,10,30,14,41,14.90
2009,10,30,14,42,14.90
2009,10,30,14,43,14.80
2009,10,30,14,44,14.80
2009,10,30,14,45,14.80
2009,10,30,14,46,14.80
2009,10,30,14,47,14.80
2009,10,30,14,48,14.80
2009,10,30,14,49,14.90
2009,10,30,14,50,14.90
2009,10,30,14,51,14.80
2009,10,30,14,52,14.80
2009,10,30,14,53,14.90
2009,10,30,14,54,14.90
2009,10,30,14,55,14.90
2009,10,30,14,56,15.00
2009,10,30,14,57,15.00
2009,10,30,14,58,15.00
2009,10,30,14,59,15.00
2009,10,30,15,00,15.00
2009,10,30,15,01,15.00
2009,10,30,15,02,15.00
2009,10,30,15,03,15.00
2009,10,30,15,04,15.00
2009,10,30,15,05,15.00
2009,10,30,15,06,15.00
2009,10,30,15,07,15.00
2009,10,30,15,08,15.10
2009,10,30,15,09,15.20
2009,10,30,15,10,15.20
2009,10,30,15,11,15.20
2009,10,30,15,12,15.20
2009,10,30,15,13,15.20
2009,10,30,15,14,15.20
2009,10,30,15,15,15.20
2009,10,30,15,16,15.30
2009,10,30,15,17,15.30
2009,10,30,15,18,15.30
2009,10,30,15,19,15.30
2009,10,30,15,20,15.30
2009,10,30,15,21,15.30
2009,10,30,15,22,15.40
2009,10,30,15,23,15.40
2009,10,30,15,24,15.40
2009,10,30,15,25,15.40
2009,10,30,15,26,15.40
2009,10,30,15,27,15.40
2009,10,30,15,28,15.40
2009,10,30,15,29,15.40
2009,10,30,15,30,15.40
2009,10,30,15,31,15.40
2009,10,30,15,32,15.40
2009,10,30,15,33,15.40
2009,10,30,15,34,15.40
2009,10,30,15,35,15.40
2009,10,30,15,36,15.40
2009,10,30,15,37,15.40
2009,10,30,15,38,15.40
2009,10,30,15,39,15.40
2009,10,30,15,40,15.50
2009,10,30,15,41,15.50
2009,10,30,15,42,15.50
2009,10,30,15,43,15.50
2009,10,30,15,44,15.50
2009,10,30,15,45,15.50
2009,10,30,15,46,15.50
2009,10,30,15,47,15.50
2009,10,30,15,48,15.50
2009,10,30,15,49,15.50
2009,10,30,15,50,15.50
2009,10,30,15,51,15.50
2009,10,30,15,52,15.40
2009,10,30,15,53,15.40
2009,10,30,15,54,15.40
2009,10,30,15,55,15.30
2009,10,30,15,56,15.30
2009,10,30,15,57,15.30
2009,10,30,15,58,15.30
2009,10,30,15,59,15.30
2009,10,30,16,00,15.30
2009,10,30,16,01,15.30
2009,10,30,16,02,15.30
2009,10,30,16,03,15.20
2009,10,30,16,04,15.20
2009,10,30,16,05,15.20
2009,10,30,16,06,15.20
2009,10,30,16,07,15.20
2009,10,30,16,08,15.20
2009,10,30,16,09,15.20
2009,10,30,16,10,15.20
2009,10,30,16,11,15.20
2009,10,30,16,12,15.20
2009,10,30,16,13,15.20
2009,10,30,16,14,15.20
2009,10,30,16,15,15.20
2009,10,30,16,16,15.20
2009,10,30,16,17,15.20
2009,10,30,16,18,15.20
2009,10,30,16,19,15.20
2009,10,30,16,20,15.20
2009,10,30,16,21,15.20
2009,10,30,16,22,15.20
2009,10,30,16,23,15.20
2009,10,30,16,24,15.20
2009,10,30,16,25,15.10
2009,10,30,16,26,15.10
2009,10,30,16,27,15.10
2009,10,30,16,28,15.10
2009,10,30,16,29,15.10
2009,10,30,16,30,15.00
2009,10,30,16,31,15.00
2009,10,30,16,32,15.00
2009,10,30,16,33,15.00
2009,10,30,16,34,15.00
2009,10,30,16,35,15.00
2009,10,30,16,36,15.00
2009,10,30,16,37,15.00
2009,10,30,16,38,15.00
2009,10,30,16,39,15.00
2009,10,30,16,40,14.90
2009,10,30,16,41,14.80
2009,10,30,16,42,14.80
2009,10,30,16,43,14.70
2009,10,30,16,44,14.60
2009,10,30,16,45,14.50
2009,10,30,16,46,14.50
2009,10,30,16,47,14.40
2009,10,30,16,48,14.40
2009,10,30,16,49,14.30
2009,10,30,16,50,14.30
2009,10,30,16,51,14.20
2009,10,30,16,52,14.20
2009,10,30,16,53,14.10
2009,10,30,16,54,14.10
2009,10,30,16,55,14.10
2009,10,30,16,56,14.00
2009,10,30,16,57,14.00
2009,10,30,16,58,13.90
2009,10,30,16,59,13.90
2009,10,30,17,00,13.90
2009,10,30,17,01,13.80
2009,10,30,17,02,13.80
2009,10,30,17,03,13.80
2009,10,30,17,04,13.80
2009,10,30,17,05,13.70
2009,10,30,17,06,13.70
2009,10,30,17,07,13.70
2009,10,30,17,08,13.60
2009,10,30,17,09,13.60
2009,10,30,17,10,13.60
2009,10,30,17,11,13.60
2009,10,30,17,12,13.60
2009,10,30,17,13,13.50
2009,10,30,17,14,13.50
2009,10,30,17,15,13.50
2009,10,30,17,16,13.40
2009,10,30,17,17,13.40
2009,10,30,17,18,13.40
2009,10,30,17,19,13.40
2009,10,30,17,20,13.40
2009,10,30,17,21,13.40
2009,10,30,17,22,13.40
2009,10,30,17,23,13.30
2009,10,30,17,24,13.30
2009,10,30,17,25,13.30
2009,10,30,17,26,13.30
2009,10,30,17,27,13.30
2009,10,30,17,28,13.30
2009,10,30,17,29,13.30
2009,10,30,17,30,13.30
2009,10,30,17,31,13.20
2009,10,30,17,32,13.20
2009,10,30,17,33,13.20
2009,10,30,17,34,13.20
2009,10,30,17,35,13.20
2009,10,30,17,36,13.20
2009,10,30,17,37,13.10
2009,10,30,17,38,13.10
2009,10,30,17,39,13.10
2009,10,30,17,40,13.10
2009,10,30,17,41,13.10
2009,10,30,17,42,13.10
2009,10,30,17,43,13.10
2009,10,30,17,44,13.10
2009,10,30,17,45,13.00
2009,10,30,17,46,13.10
2009,10,30,17,47,13.00
2009,10,30,17,48,13.00
2009,10,30,17,49,13.00
2009,10,30,17,50,12.90
2009,10,30,17,51,12.90
2009,10,30,17,52,12.90
2009,10,30,17,53,12.90